Regional Weather Roundup
Issued by NWS

Home | Current Version | Previous Version | Graphics & Text | Print | Product List | Glossary On
Versions: 1 2 3 4 5 6 7 8 9 10 11 12 13 14 15 16 17 18 19 20 21 22 23 24 25 26 27 28 29 30 31 32 33 34 35 36 37 38 39 40 41 42 43 44 45 46 47 48 49 50
639
ASUS44 KLIX 281110
RWRLA
LOUISIANA WEATHER ROUNDUP
NATIONAL WEATHER SERVICE NEW ORLEANS LA
500 AM CST FRI NOV 28 2014

NOTE: "FAIR" INDICATES FEW OR NO CLOUDS BELOW 12,000 FEET WITH NO
      SIGNIFICANT WEATHER AND/OR OBSTRUCTIONS TO VISIBILITY.
      SKY/WX - SKY CONDITION AND SIGNIFICANT WEATHER.
      TMP - AIR TEMPERATURE.    DP   - DEWPOINT TEMPERATURE.
      RH  - RELATIVE HUMIDITY.  PRES - PRESSURE.
      HX  - HEAT INDEX.         WCI  - WIND CHILL INDEX.

*  THESE STATIONS ARE NOT NWS OR FAA STATIONS AND ARE NOT UNDER
   NWS QUALITY CONTROL.

LAZ040-048-061>063-065-066-069-281200-
SOUTHEAST LOUISIANA

CITY           SKY/WX    TMP DP  RH WIND       PRES   REMARKS
N.O. AUDUBON     N/A     44  35  70 MISG        N/A
N.O. INTL ARPT CLEAR     44  34  67 E8        30.42S
N.O. LAKEFRONT CLEAR     45  35  68 E15       30.43S
N.O. DOWNTOWN* FAIR      43  30  61 NE8       30.43S
SLIDELL        CLEAR     31  29  92 CALM      30.43S
BATON ROUGE    CLEAR     34  31  88 NE5       30.42S WCI  30
BOOTHVILLE     CLEAR     50  43  77 NE9       30.40S
BELLE CHASSE   CLEAR     41  35  79 NE5       30.42S
BOGALUSA*        N/A     33  31  92 CALM      30.45S
NEW ROADS*     FAIR      37  31  81 E5        30.42S WCI  33
GONZALES*      FAIR      37  35  92 CALM      30.42S
HAMMOND*       CLEAR     36  32  87 NE3       30.44F
HOUMA*         CLEAR     37  34  88 NE5       30.41S WCI  34
PORT FOURCHON* MOSUNNY   50  45  81 NE12      30.43S

$$

LAZ041-044-053-054-281200-
SOUTHWEST LOUISIANA

CITY           SKY/WX    TMP DP  RH WIND       PRES   REMARKS
LAKE CHARLES   CLEAR     38  35  89 CALM      30.40S
LAFAYETTE      CLEAR     38  33  82 CALM      30.41S
PATTERSON      CLEAR     37  36  93 NE6       30.43  WCI  33
SALT POINT       N/A     44  37  76 CALM      30.39S
NEW IBERIA     CLEAR     40  33  76 E7        30.41S
CHENAULT AIRPK NOT AVBL

$$

LAZ027-028-281200-
CENTRAL LOUISIANA

CITY           SKY/WX    TMP DP  RH WIND       PRES   REMARKS
FORT POLK      CLEAR     35  33  90 SE5       30.40S WCI  31
ALEXANDRIA INT CLEAR     34  32  92 S3        30.40F
ALEXANDRIA     CLEAR     29  28  96 CALM      30.41F

$$

LAZ001-002-281200-
NORTHWEST LOUISIANA

CITY           SKY/WX    TMP DP  RH WIND       PRES   REMARKS
SHREVEPORT     CLEAR     35  32  88 SE5       30.37F WCI  31
BARKSDALE AFB  CLEAR     32  29  90 SE6       30.39F WCI  26
DTN SHREVEPORT CLEAR     36  31  82 SE5       30.39F WCI  32

$$

LAZ014-016-281200-
NORTHEAST LOUISIANA

CITY           SKY/WX    TMP DP  RH WIND       PRES   REMARKS
MONROE         CLEAR     29  28  96 CALM      30.44S FOG
TALLULAH       CLEAR     26  24  92 CALM      30.45R

$$




USA.gov is the U.S. government's official web portal to all federal, state and local government web resources and services.